Theta_e
313 312 311 310 309 308 302 297 286 298 300 287 283 285 284 288 289 291 289 289 287 284 285 284 284 285 288 293 291 285 289 285 281 285 289 291 289 286 285 280 278 280 279 278
312 311 311 310 310 306 300 289 293 298 298 285 285 284 285 287 288 289 288 287 289 290 285 282 285 287 292 292 288 288 289 284 280 283 285 288 285 287 287 286 284 279 277 280
312 311 310 309 309 307 301 293 285 290 293 291 286 283 284 284 289 289 290 289 290 288 286 287 284 285 289 291 290 292 290 284 283 279 281 285 281 284 285 285 280 280 282 283
312 310 310 309 309 306 299 292 285 285 284 284 287 286 285 284 285 289 290 287 288 287 282 281 282 286 287 288 291 289 289 282 285 285 286 286 284 283 283 282 285 281 281 280
311 310 309 309 309 305 297 286 286 285 284 286 286 285 284 284 285 287 285 285 288 288 285 285 283 285 285 283 287 286 288 283 284 283 285 285 283 284 284 283 283 285 283 282
310 310 309 309 308 304 297 292 290 293 286 286 285 286 285 285 287 289 289 289 287 286 288 290 290 290 289 288 285 283 283 282 282 281 285 284 281 282 284 284 285 285 281 284
310 309 309 308 308 304 298 293 292 292 284 286 286 285 286 285 287 285 289 290 287 288 291 291 289 287 286 286 286 286 281 281 283 281 283 276 284 288 288 286 285 286 286 287
310 309 309 308 307 306 298 294 295 293 285 286 284 284 285 287 288 287 287 289 291 291 289 284 282 281 278 279 284 286 286 283 280 279 280 282 284 287 285 283 284 288 287 288
310 309 308 308 307 306 298 296 297 296 288 286 288 285 286 286 285 284 285 288 291 289 285 282 279 279 273 278 279 284 284 285 281 280 279 277 284 289 291 289 282 290 289 288
309 309 308 308 307 306 299 297 297 297 290 289 289 287 286 289 287 287 284 285 286 287 284 281 280 280 276 278 274 277 279 281 281 280 280 284 288 289 291 280 284 291 290 289
309 308 308 307 307 306 301 296 296 297 292 287 288 289 287 287 288 286 285 285 284 283 281 282 280 279 279 277 279 278 279 279 280 280 280 279 289 287 284 289 291 290 290 290
308 308 308 307 307 306 303 295 294 297 293 287 290 289 289 289 288 289 287 286 285 287 284 282 282 279 277 277 279 279 278 282 282 282 285 288 289 289 291 291 291 289 290 290
308 308 308 307 307 305 302 295 293 294 286 286 287 286 288 290 289 291 288 288 289 287 288 286 284 281 281 279 278 278 280 283 282 281 285 286 289 290 290 290 289 289 290 290
308 307 307 306 306 305 303 294 294 296 290 285 284 287 287 289 289 290 291 290 290 289 289 286 284 282 282 281 280 279 283 283 282 281 284 284 286 288 291 289 289 288 289 289
307 307 306 306 306 305 300 295 294 296 293 285 281 285 286 288 289 290 290 291 290 289 285 284 283 283 281 282 280 279 282 282 281 283 286 288 288 289 290 288 288 288 286 286
307 306 306 306 305 300 296 287 295 292 294 285 280 284 284 287 289 289 288 288 287 288 286 284 282 281 282 279 278 284 284 286 287 286 286 286 286 287 287 288 287 284 282 282
306 306 306 305 302 299 291 288 295 293 294 285 278 279 283 284 285 285 285 285 284 286 283 282 282 281 282 279 276 284 284 285 285 285 284 283 283 286 283 281 280 276 276 275
306 306 305 303 303 297 289 293 295 293 286 285 278 277 279 283 282 281 283 283 284 283 282 279 279 280 280 275 281 283 282 283 284 284 284 283 282 280 278 274 273 271 274 274
306 305 304 300 291 285 286 294 291 289 290 284 280 275 275 283 281 281 281 284 280 280 278 279 279 278 274 279 281 282 282 280 282 283 280 275 276 279 276 273 269 272 272 270
305 299 286 284 286 294 293 288 285 286 286 282 281 282 276 282 280 278 279 279 280 275 278 280 275 276 282 282 283 284 284 283 281 275 274 271 274 275 276 273 274 275 274 269
289 285 282 287 295 288 285 281 282 283 280 281 279 280 276 281 279 278 279 277 276 273 276 275 275 274 279 282 283 283 282 284 280 279 281 282 281 280 278 271 271 269 268 267
289 287 288 286 285 284 280 279 279 279 279 278 277 278 281 278 282 278 273 275 273 272 274 272 272 277 281 277 276 282 279 280 278 274 275 274 275 274 273 272 270 267 266 264
291 286 283 283 282 276 276 274 276 276 275 276 278 276 276 276 279 275 274 272 271 272 271 272 276 280 278 276 273 272 272 276 274 271 272 271 268 264 267 267 266 267 265 264
284 281 276 279 275 278 279 280 281 277 276 277 281 275 278 277 276 274 274 268 270 269 268 271 279 281 281 273 271 270 269 270 273 272 269 268 266 265 265 266 267 264 265 264
282 282 277 278 280 276 281 278 276 277 281 282 278 278 278 275 272 273 267 265 267 271 274 278 284 283 275 272 271 270 269 269 271 270 268 267 267 268 268 265 264 264 263 263
283 282 280 280 278 272 275 279 277 282 283 284 284 277 276 275 275 269 270 272 271 278 278 283 280 277 274 274 272 272 271 271 272 269 269 268 268 269 270 263 262 262 263 264
282 280 278 282 280 277 278 281 279 284 282 280 280 276 278 274 274 272 276 274 281 283 283 280 277 276 276 274 273 271 270 269 269 268 269 271 269 265 265 266 265 263 264 264
Wind_Speed
26 25 23 21 19 18 8 3 1 3 3 2 0 1 3 3 4 3 1 4 4 3 4 4 3 4 5 8 10 8 2 5 6 3 0 4 8 10 10 5 3 5 4 7
28 27 25 23 23 21 6 5 2 1 4 2 3 1 1 1 4 5 5 4 6 4 3 5 3 5 3 9 11 3 4 3 7 4 1 2 4 6 12 12 4 11 5 4
30 29 28 26 25 20 4 5 4 2 2 1 3 3 4 3 5 4 4 4 6 6 5 5 5 5 5 10 5 6 4 4 5 8 4 5 4 8 8 8 7 5 6 13
31 31 30 29 28 21 3 2 3 3 5 6 8 5 5 4 4 6 6 4 12 5 3 3 4 5 9 5 4 9 4 5 3 9 4 4 6 12 11 10 15 4 7 7
33 33 32 31 30 21 3 7 5 2 3 3 12 6 6 7 4 8 6 9 5 10 8 6 5 4 3 4 4 7 5 4 5 4 7 4 5 13 14 7 9 4 7 4
34 34 33 33 32 21 4 3 0 2 6 7 6 6 6 9 7 9 3 7 7 10 13 11 9 9 10 11 9 4 4 5 4 2 4 4 3 10 11 5 9 5 4 3
36 36 36 35 35 27 3 5 4 4 4 7 6 3 8 8 11 4 3 6 6 2 5 11 7 6 8 6 7 7 4 6 3 4 5 1 2 5 8 3 7 7 3 4
36 37 37 36 35 33 3 4 4 4 4 6 4 7 5 5 2 6 6 7 1 4 5 4 4 3 0 2 4 7 10 5 4 3 3 1 2 2 3 5 5 3 2 2
37 38 37 38 36 33 4 3 1 2 7 8 4 9 10 5 4 2 4 1 2 1 1 2 3 2 1 1 4 1 5 8 4 3 4 2 2 2 5 2 0 2 3 4
38 38 39 38 37 34 9 2 3 2 3 4 7 5 8 7 5 1 2 4 4 1 2 3 2 2 2 2 2 1 2 3 4 3 3 2 3 3 5 3 3 5 2 4
38 39 38 37 34 35 16 3 2 1 3 3 3 3 5 5 4 4 5 4 1 2 4 3 2 3 2 3 1 3 2 2 2 0 3 3 5 6 3 4 4 3 2 3
40 39 38 37 34 34 23 4 1 1 5 3 2 2 2 3 4 2 5 2 4 3 2 2 2 3 2 2 2 3 3 3 2 5 2 2 2 2 1 1 1 2 1 3
40 40 39 37 36 35 25 5 5 3 5 2 2 3 3 2 3 2 2 2 2 4 1 2 1 3 4 4 5 2 5 4 4 3 2 10 5 3 3 2 2 2 2 2
40 39 38 38 38 36 24 4 4 3 4 3 3 1 1 2 1 1 2 2 5 5 1 1 2 3 2 2 1 4 1 7 4 6 7 4 9 8 6 5 3 3 2 2
39 38 38 38 37 35 14 4 3 1 3 4 3 2 1 1 2 3 2 6 5 3 3 2 3 1 3 1 3 7 10 9 8 7 5 1 2 11 8 7 6 4 1 0
37 39 39 39 38 33 11 3 4 4 4 6 3 2 1 2 5 6 6 3 3 2 2 1 1 1 3 3 5 8 12 7 4 2 4 2 3 5 3 6 6 4 1 1
39 39 39 40 40 19 11 8 6 16 3 4 4 3 2 2 3 2 3 2 2 1 2 2 2 3 4 4 8 5 11 12 9 3 6 2 5 6 8 4 5 3 2 1
38 38 40 41 38 18 4 5 21 12 7 3 5 4 4 5 4 4 1 2 1 1 2 1 3 2 4 10 14 6 5 7 7 10 7 3 4 6 6 4 4 3 4 3
37 37 38 22 5 4 5 16 11 3 4 6 5 9 7 6 3 4 2 1 4 2 4 4 5 5 12 14 10 11 14 11 9 11 6 4 3 6 6 5 3 4 4 3
40 25 7 4 3 32 19 5 3 2 2 2 3 4 6 5 4 3 5 2 2 4 4 5 6 10 15 16 12 6 12 13 11 9 5 5 5 8 7 9 5 4 3 4
9 5 5 8 24 6 4 5 5 5 5 6 6 4 9 4 5 5 2 4 4 4 4 5 5 9 8 14 21 14 10 14 14 3 3 10 5 11 9 5 5 2 2 3
11 15 12 4 5 4 6 6 3 8 10 8 9 7 5 5 3 4 3 4 3 5 6 4 7 8 10 5 6 14 12 13 12 5 8 7 6 4 6 6 6 5 4 2
12 7 5 5 3 8 13 14 10 9 9 8 8 8 6 4 2 5 4 6 5 3 5 8 8 6 4 6 6 5 5 9 10 6 5 7 7 4 4 6 4 6 5 4
5 7 11 8 8 10 11 9 6 6 9 13 12 7 5 4 4 4 5 3 3 5 7 9 7 13 9 8 5 7 11 9 12 10 8 8 8 6 6 4 5 6 4 4
6 6 9 9 4 3 5 7 8 3 13 15 8 5 4 4 6 2 6 3 9 11 7 6 5 1 7 10 9 8 10 10 9 8 8 8 7 6 5 4 4 5 4 5
6 6 9 6 8 4 4 10 9 10 14 11 3 6 5 4 5 6 12 7 11 6 7 3 1 2 3 8 10 9 10 11 10 8 7 7 8 6 5 5 3 2 3 5
6 4 2 5 8 9 7 7 9 15 17 14 6 8 8 7 5 7 9 8 4 3 1 1 1 2 6 10 10 9 11 10 9 8 8 7 6 7 5 5 5 5 3 1
Wind_Direction
182 176 176 172 165 155 173 151 209 15 282 69 61 177 203 115 166 177 232 267 265 287 312 291 298 298 308 358 350 317 352 304 283 271 2 284 271 253 218 242 222 221 271 286
180 174 174 172 166 167 146 129 129 23 280 175 212 171 237 215 187 202 163 250 215 233 273 300 226 276 307 324 335 352 1 256 293 171 182 150 260 270 256 256 251 242 263 290
180 175 171 173 172 178 144 133 155 123 266 185 188 216 164 205 186 237 200 275 260 262 272 256 282 297 306 329 343 353 285 262 269 311 348 313 350 341 319 256 244 273 278 305
179 175 172 173 175 177 154 95 220 169 175 223 219 187 146 193 171 223 204 256 239 231 272 290 236 269 303 301 109 334 354 273 312 301 263 266 4 3 354 339 235 233 24 16
177 176 174 175 175 174 199 141 161 194 135 178 182 203 186 206 187 185 202 227 255 228 240 229 305 284 313 291 321 340 345 282 308 237 212 286 322 4 353 7 5 115 82 36
178 176 176 174 175 173 152 132 156 170 153 166 177 216 189 188 180 215 228 224 251 244 260 288 302 301 279 272 294 310 293 321 302 317 346 310 250 355 344 355 25 350 50 339
181 177 176 178 176 189 114 164 151 143 158 198 203 212 193 185 198 273 194 202 224 32 319 288 256 252 254 255 250 228 283 308 276 302 282 332 11 321 314 8 33 26 67 5
183 181 178 180 178 186 153 158 184 151 134 187 184 210 175 151 183 227 244 196 359 346 302 290 291 190 138 276 257 213 218 289 301 299 360 38 231 346 1 360 24 333 359 13
182 181 177 181 179 185 139 180 264 142 128 217 126 169 181 142 191 227 233 135 79 278 296 277 279 303 125 319 341 131 241 239 275 304 289 303 92 160 167 321 198 182 330 340
180 184 180 182 178 180 178 157 239 147 117 155 153 182 178 164 174 199 141 168 147 114 210 238 240 235 340 247 261 226 257 213 260 254 263 264 94 131 141 253 95 145 238 332
182 183 182 180 180 176 178 131 229 253 98 143 202 178 146 130 187 187 138 136 146 134 222 221 165 237 181 247 232 188 229 228 217 296 257 255 134 120 239 17 45 79 329 356
183 182 181 178 181 175 172 159 159 325 79 90 64 47 48 52 25 124 187 39 151 157 124 237 137 184 177 334 266 212 236 225 276 231 333 91 183 290 354 291 25 75 4 39
182 182 180 176 175 173 172 131 155 97 104 99 153 199 117 117 45 349 198 199 135 158 51 142 12 222 164 210 231 247 214 165 226 330 197 232 235 218 231 197 133 127 98 71
183 180 178 175 173 170 163 146 181 102 110 143 140 71 191 55 354 224 340 80 103 100 170 153 195 258 219 239 7 241 8 159 184 252 254 281 242 230 187 164 142 134 102 32
182 179 177 173 169 161 146 103 210 33 144 135 121 117 131 8 169 152 146 159 134 143 144 181 221 155 203 214 300 236 184 186 187 215 169 177 164 173 168 171 178 145 127 252
182 180 175 168 161 138 133 112 238 192 134 116 138 69 93 57 134 124 112 87 71 93 162 175 161 314 262 235 249 253 194 207 233 225 141 105 67 101 144 169 148 142 165 209
180 179 172 163 152 151 166 178 146 150 146 109 116 155 115 64 89 76 99 43 77 26 106 218 184 207 216 253 241 230 201 203 196 172 140 129 190 195 173 137 116 106 69 41
177 171 164 153 151 110 72 359 143 118 96 71 130 113 167 197 136 125 4 134 137 90 146 179 214 145 220 251 242 234 177 181 179 190 218 9 77 107 124 102 125 146 191 180
167 163 149 136 97 109 117 117 119 47 113 170 166 156 173 163 98 111 129 244 190 86 216 209 183 203 223 230 224 197 189 189 191 186 149 126 192 170 158 160 167 198 209 205
147 124 82 125 144 124 121 28 70 30 319 111 151 111 138 169 146 130 129 221 192 211 202 130 221 252 247 244 221 210 193 188 143 140 199 181 217 197 189 207 195 205 176 160
113 112 85 115 136 79 61 126 167 156 217 176 143 155 136 205 142 133 220 173 165 221 154 212 233 259 238 216 220 195 180 185 187 165 185 188 183 186 186 187 197 185 193 224
128 109 107 121 95 108 135 161 141 203 207 157 147 142 121 141 144 116 184 168 169 230 138 220 250 248 234 174 203 190 173 177 171 149 148 139 131 122 139 140 160 183 189 188
106 87 126 139 148 144 179 179 198 195 155 163 157 124 126 125 131 95 149 174 200 128 205 234 236 257 224 196 156 148 117 151 138 135 115 123 127 124 147 159 169 164 177 202
117 143 140 165 167 213 197 191 125 121 129 142 144 104 124 135 128 137 144 82 170 219 231 233 241 235 231 158 144 147 180 161 156 162 148 151 164 173 180 170 152 159 197 174
122 141 161 182 140 38 111 102 102 110 147 142 112 89 102 110 116 96 112 145 237 220 228 225 245 327 156 161 160 163 169 179 166 147 161 163 161 170 166 166 162 172 164 174
132 165 150 134 126 143 170 138 122 150 150 144 87 122 141 152 137 159 211 195 216 214 217 235 330 248 173 158 153 156 156 168 160 150 156 153 159 163 157 130 166 201 208 182
149 151 63 168 93 129 143 143 145 157 153 163 144 154 175 115 187 219 196 212 195 214 216 359 268 270 182 149 141 145 143 140 141 141 153 146 124 116 124 173 182 180 175 335